Weather History for Redding, CA

Change the Weather History Date:

Wednesday, May 29, 2013

  Actual Average Record
Temperature  
Mean Temperature 72 °F -  
Max Temperature 83 °F 85 °F 101 °F (2009)
Min Temperature 61 °F 57 °F 41 °F (2011)
Degree Days  
Heating Degree Days 0    
Cooling Degree Days 7    
Growing Degree Days 22 (Base 50)    
Moisture  
Dew Point 40 °F    
Average Humidity 38    
Maximum Humidity 60    
Minimum Humidity 15    
Precipitation  
Precipitation T in 0.05 in 0.67 in (1998)
Month to date precipitation 0.86 1.74  
Year to date precipitation 7.72 20.06  
Since 1 July precipitation 26.88 33.82  
Sea Level Pressure  
Sea Level Pressure 29.84 in    
Wind  
Wind Speed 7 mph (SW)    
Max Wind Speed 14 mph    
Max Gust Speed 20 mph    
Visibility 10 miles    
Events Rain    
T = Trace of Precipitation, MM = Missing Value Source: NWS Daily Summary

Daily Weather History Graph

Daily Weather History Graph

Search for Another Location

Airport:

Trip Planner

Search our weather history database for the weather conditions in past years. The results will help you decide how hot, cold, wet, or windy it might be!

Date:

Astronomy

May. 29, 2013 Rise Set
Actual Time 5:42 AM PDT 8:31 PM PDT
Civil Twilight 5:09 AM PDT 9:03 PM PDT
Nautical Twilight 4:29 AM PDT 9:44 PM PDT
Astronomical Twilight 3:42 AM PDT 10:31 PM PDT
Moon No Moon Rise 10:48 AM PDT (5/29)
Length of Visible Light 15h 54m
Length of Day
14h 49m
Waning Gibbous, 72% of the Moon is Illuminated
May 29
Waning Gibbous
May 31
Last Quarter
Jun 8
New
Jun 16
First Quarter
Jun 23
Full

Hourly Weather History & Observations

Time (PDT) Temp. Dew Point Humidity Pressure Visibility Wind Dir Wind Speed Gust Speed Precip Events Conditions
12:53 AM 68.0 °F 51.1 °F 55% 29.81 in 10.0 mi South 9.2 mph - 0.00 in Rain Light Rain
1:53 AM 66.9 °F 51.1 °F 57% 29.80 in 10.0 mi WSW 4.6 mph - 0.01 in   Overcast
2:53 AM 66.0 °F 48.9 °F 54% 29.81 in 10.0 mi West 4.6 mph - N/A   Overcast
3:53 AM 63.0 °F 48.0 °F 58% 29.79 in 10.0 mi WNW 3.5 mph - N/A   Partly Cloudy
4:53 AM 62.1 °F 48.0 °F 60% 29.81 in 10.0 mi West 3.5 mph - N/A   Overcast
5:53 AM 62.1 °F 44.1 °F 52% 29.82 in 10.0 mi WSW 11.5 mph - N/A   Partly Cloudy
6:53 AM 63.0 °F 41.0 °F 45% 29.84 in 10.0 mi WSW 12.7 mph - N/A   Clear
7:53 AM 66.0 °F 43.0 °F 43% 29.85 in 10.0 mi West 6.9 mph - N/A   Clear
8:53 AM 68.0 °F 39.9 °F 36% 29.87 in 10.0 mi SW 6.9 mph - N/A   Clear
9:53 AM 71.1 °F 39.0 °F 31% 29.88 in 10.0 mi Variable 5.8 mph - N/A   Clear
10:53 AM 72.0 °F 37.9 °F 29% 29.88 in 10.0 mi West 8.1 mph - N/A   Clear
11:53 AM 73.9 °F 37.9 °F 27% 29.87 in 10.0 mi South 12.7 mph 18.4 mph N/A   Clear
12:53 PM 75.9 °F 37.0 °F 24% 29.86 in 10.0 mi SSE 6.9 mph - N/A   Clear
1:53 PM 78.1 °F 36.0 °F 22% 29.85 in 10.0 mi South 8.1 mph - N/A   Clear
2:53 PM 79.0 °F 36.0 °F 21% 29.83 in 10.0 mi SSW 10.4 mph - N/A   Clear
3:53 PM 80.1 °F 35.1 °F 20% 29.82 in 10.0 mi East 5.8 mph - N/A   Clear
4:53 PM 82.0 °F 30.9 °F 16% 29.81 in 10.0 mi SW 4.6 mph - N/A   Clear
5:53 PM 81.0 °F 36.0 °F 20% 29.80 in 10.0 mi South 11.5 mph - N/A   Clear
6:53 PM 80.1 °F 37.9 °F 22% 29.80 in 10.0 mi South 8.1 mph - N/A   Clear
7:53 PM 77.0 °F 37.9 °F 24% 29.81 in 10.0 mi WNW 6.9 mph - N/A   Clear
8:53 PM 72.0 °F 37.9 °F 29% 29.83 in 10.0 mi NW 5.8 mph - N/A   Clear
9:53 PM 70.0 °F 36.0 °F 29% 29.85 in 10.0 mi NW 9.2 mph - N/A   Clear
10:53 PM 68.0 °F 35.1 °F 30% 29.87 in 10.0 mi NW 5.8 mph - N/A   Clear
11:53 PM 64.9 °F 35.1 °F 33% 29.89 in 10.0 mi SW 4.6 mph - N/A   Scattered Clouds